Year,Month,Day,Hour,Minute,Value (Times are PST for temperature in C)
2021,08,12,00,00,17.80
2021,08,12,00,01,17.80
2021,08,12,00,02,17.80
2021,08,12,00,03,17.80
2021,08,12,00,04,17.90
2021,08,12,00,05,18.00
2021,08,12,00,06,18.00
2021,08,12,00,07,18.10
2021,08,12,00,08,18.10
2021,08,12,00,09,18.10
2021,08,12,00,10,18.10
2021,08,12,00,11,18.10
2021,08,12,00,12,18.10
2021,08,12,00,13,18.10
2021,08,12,00,14,18.10
2021,08,12,00,15,18.10
2021,08,12,00,16,18.10
2021,08,12,00,17,18.10
2021,08,12,00,18,18.10
2021,08,12,00,19,18.10
2021,08,12,00,20,18.10
2021,08,12,00,21,18.10
2021,08,12,00,22,18.10
2021,08,12,00,23,18.10
2021,08,12,00,24,18.10
2021,08,12,00,25,18.00
2021,08,12,00,26,18.00
2021,08,12,00,27,18.10
2021,08,12,00,28,18.10
2021,08,12,00,29,18.10
2021,08,12,00,30,18.10
2021,08,12,00,31,18.10
2021,08,12,00,32,18.10
2021,08,12,00,33,18.10
2021,08,12,00,34,18.10
2021,08,12,00,35,18.10
2021,08,12,00,36,18.10
2021,08,12,00,37,18.10
2021,08,12,00,38,18.00
2021,08,12,00,39,18.00
2021,08,12,00,40,17.90
2021,08,12,00,41,17.90
2021,08,12,00,42,17.90
2021,08,12,00,43,17.80
2021,08,12,00,44,17.80
2021,08,12,00,45,17.80
2021,08,12,00,46,17.80
2021,08,12,00,47,17.70
2021,08,12,00,48,17.70
2021,08,12,00,49,17.70
2021,08,12,00,50,17.70
2021,08,12,00,51,17.60
2021,08,12,00,52,17.60
2021,08,12,00,53,17.60
2021,08,12,00,54,17.60
2021,08,12,00,55,17.60
2021,08,12,00,56,17.60
2021,08,12,00,57,17.50
2021,08,12,00,58,17.50
2021,08,12,00,59,17.50
2021,08,12,01,00,17.40
2021,08,12,01,01,17.40
2021,08,12,01,02,17.40
2021,08,12,01,03,17.40
2021,08,12,01,04,17.40
2021,08,12,01,05,17.40
2021,08,12,01,06,17.40
2021,08,12,01,07,17.30
2021,08,12,01,08,17.40
2021,08,12,01,09,17.40
2021,08,12,01,10,17.40
2021,08,12,01,11,17.40
2021,08,12,01,12,17.50
2021,08,12,01,13,17.50
2021,08,12,01,14,17.50
2021,08,12,01,15,17.50
2021,08,12,01,16,17.50
2021,08,12,01,17,17.50
2021,08,12,01,18,17.60
2021,08,12,01,19,17.60
2021,08,12,01,20,17.60
2021,08,12,01,21,17.60
2021,08,12,01,22,17.60
2021,08,12,01,23,17.60
2021,08,12,01,24,17.70
2021,08,12,01,25,17.70
2021,08,12,01,26,17.70
2021,08,12,01,27,17.70
2021,08,12,01,28,17.80
2021,08,12,01,29,17.80
2021,08,12,01,30,17.80
2021,08,12,01,31,17.80
2021,08,12,01,32,17.80
2021,08,12,01,33,17.90
2021,08,12,01,34,17.90
2021,08,12,01,35,17.90
2021,08,12,01,36,17.90
2021,08,12,01,37,18.00
2021,08,12,01,38,18.00
2021,08,12,01,39,17.90
2021,08,12,01,40,17.90
2021,08,12,01,41,17.80
2021,08,12,01,42,17.80
2021,08,12,01,43,17.80
2021,08,12,01,44,17.80
2021,08,12,01,45,17.70
2021,08,12,01,46,17.70
2021,08,12,01,47,17.70
2021,08,12,01,48,17.70
2021,08,12,01,49,17.70
2021,08,12,01,50,17.70
2021,08,12,01,51,17.70
2021,08,12,01,52,17.70
2021,08,12,01,53,17.70
2021,08,12,01,54,17.70
2021,08,12,01,55,17.70
2021,08,12,01,56,17.70
2021,08,12,01,57,17.70
2021,08,12,01,58,17.70
2021,08,12,01,59,17.70
2021,08,12,02,00,17.70
2021,08,12,02,01,17.80
2021,08,12,02,02,17.90
2021,08,12,02,03,17.90
2021,08,12,02,04,18.00
2021,08,12,02,05,18.10
2021,08,12,02,06,18.10
2021,08,12,02,07,18.20
2021,08,12,02,08,18.20
2021,08,12,02,09,18.20
2021,08,12,02,10,18.30
2021,08,12,02,11,18.40
2021,08,12,02,12,18.40
2021,08,12,02,13,18.20
2021,08,12,02,14,18.00
2021,08,12,02,15,17.90
2021,08,12,02,16,17.70
2021,08,12,02,17,17.50
2021,08,12,02,18,17.40
2021,08,12,02,19,17.40
2021,08,12,02,20,17.50
2021,08,12,02,21,17.60
2021,08,12,02,22,17.60
2021,08,12,02,23,17.70
2021,08,12,02,24,17.80
2021,08,12,02,25,17.90
2021,08,12,02,26,17.90
2021,08,12,02,27,18.00
2021,08,12,02,28,18.10
2021,08,12,02,29,18.10
2021,08,12,02,30,18.10
2021,08,12,02,31,18.20
2021,08,12,02,32,18.20
2021,08,12,02,33,18.30
2021,08,12,02,34,18.40
2021,08,12,02,35,18.50
2021,08,12,02,36,18.50
2021,08,12,02,37,18.60
2021,08,12,02,38,18.70
2021,08,12,02,39,18.80
2021,08,12,02,40,18.90
2021,08,12,02,41,19.00
2021,08,12,02,42,19.10
2021,08,12,02,43,19.20
2021,08,12,02,44,19.30
2021,08,12,02,45,19.30
2021,08,12,02,46,19.40
2021,08,12,02,47,19.40
2021,08,12,02,48,19.50
2021,08,12,02,49,19.60
2021,08,12,02,50,19.60
2021,08,12,02,51,19.60
2021,08,12,02,52,19.60
2021,08,12,02,53,19.40
2021,08,12,02,54,19.40
2021,08,12,02,55,19.30
2021,08,12,02,56,19.20
2021,08,12,02,57,19.10
2021,08,12,02,58,19.10
2021,08,12,02,59,19.10
2021,08,12,03,00,19.10
2021,08,12,03,01,19.10
2021,08,12,03,02,19.10
2021,08,12,03,03,19.10
2021,08,12,03,04,19.10
2021,08,12,03,05,19.10
2021,08,12,03,06,19.10
2021,08,12,03,07,19.10
2021,08,12,03,08,19.00
2021,08,12,03,09,19.00
2021,08,12,03,10,19.10
2021,08,12,03,11,19.10
2021,08,12,03,12,19.10
2021,08,12,03,13,19.10
2021,08,12,03,14,19.10
2021,08,12,03,15,19.10
2021,08,12,03,16,19.10
2021,08,12,03,17,19.20
2021,08,12,03,18,19.20
2021,08,12,03,19,19.20
2021,08,12,03,20,19.10
2021,08,12,03,21,19.10
2021,08,12,03,22,19.10
2021,08,12,03,23,19.10
2021,08,12,03,24,19.10
2021,08,12,03,25,19.10
2021,08,12,03,26,19.20
2021,08,12,03,27,19.20
2021,08,12,03,28,19.30
2021,08,12,03,29,19.30
2021,08,12,03,30,19.40
2021,08,12,03,31,19.50
2021,08,12,03,32,19.60
2021,08,12,03,33,19.70
2021,08,12,03,34,19.70
2021,08,12,03,35,19.80
2021,08,12,03,36,19.80
2021,08,12,03,37,19.80
2021,08,12,03,38,19.80
2021,08,12,03,39,19.80
2021,08,12,03,40,19.80
2021,08,12,03,41,19.80
2021,08,12,03,42,19.80
2021,08,12,03,43,19.70
2021,08,12,03,44,19.70
2021,08,12,03,45,19.70
2021,08,12,03,46,19.60
2021,08,12,03,47,19.50
2021,08,12,03,48,19.50
2021,08,12,03,49,19.60
2021,08,12,03,50,19.60
2021,08,12,03,51,19.60
2021,08,12,03,52,19.60
2021,08,12,03,53,19.60
2021,08,12,03,54,19.60
2021,08,12,03,55,19.60
2021,08,12,03,56,19.80
2021,08,12,03,57,19.90
2021,08,12,03,58,20.10
2021,08,12,03,59,20.20
2021,08,12,04,00,20.30
2021,08,12,04,01,20.40
2021,08,12,04,02,20.60
2021,08,12,04,03,20.70
2021,08,12,04,04,20.80
2021,08,12,04,05,20.90
2021,08,12,04,06,21.00
2021,08,12,04,07,21.10
2021,08,12,04,08,21.20
2021,08,12,04,09,21.20
2021,08,12,04,10,21.20
2021,08,12,04,11,21.20
2021,08,12,04,12,21.20
2021,08,12,04,13,21.10
2021,08,12,04,14,21.10
2021,08,12,04,15,21.10
2021,08,12,04,16,21.10
2021,08,12,04,17,21.10
2021,08,12,04,18,21.10
2021,08,12,04,19,21.10
2021,08,12,04,20,21.10
2021,08,12,04,21,21.10
2021,08,12,04,22,21.10
2021,08,12,04,23,21.00
2021,08,12,04,24,20.90
2021,08,12,04,25,20.80
2021,08,12,04,26,20.60
2021,08,12,04,27,20.50
2021,08,12,04,28,20.40
2021,08,12,04,29,20.30
2021,08,12,04,30,20.30
2021,08,12,04,31,20.20
2021,08,12,04,32,20.20
2021,08,12,04,33,20.20
2021,08,12,04,34,20.10
2021,08,12,04,35,20.00
2021,08,12,04,36,19.90
2021,08,12,04,37,19.70
2021,08,12,04,38,19.50
2021,08,12,04,39,19.40
2021,08,12,04,40,19.20
2021,08,12,04,41,19.00
2021,08,12,04,42,18.90
2021,08,12,04,43,18.80
2021,08,12,04,44,18.80
2021,08,12,04,45,18.80
2021,08,12,04,46,18.90
2021,08,12,04,47,19.00
2021,08,12,04,48,19.00
2021,08,12,04,49,19.10
2021,08,12,04,50,19.10
2021,08,12,04,51,19.10
2021,08,12,04,52,19.10
2021,08,12,04,53,19.20
2021,08,12,04,54,19.20
2021,08,12,04,55,19.20
2021,08,12,04,56,19.20
2021,08,12,04,57,19.20
2021,08,12,04,58,19.30
2021,08,12,04,59,19.50
2021,08,12,05,00,19.70
2021,08,12,05,01,19.70
2021,08,12,05,02,19.80
2021,08,12,05,03,19.90
2021,08,12,05,04,19.90
2021,08,12,05,05,19.90
2021,08,12,05,06,19.90
2021,08,12,05,07,19.90
2021,08,12,05,08,19.80
2021,08,12,05,09,19.80
2021,08,12,05,10,19.90
2021,08,12,05,11,19.90
2021,08,12,05,12,20.00
2021,08,12,05,13,20.00
2021,08,12,05,14,20.00
2021,08,12,05,15,20.00
2021,08,12,05,16,19.90
2021,08,12,05,17,19.90
2021,08,12,05,18,19.80
2021,08,12,05,19,19.70
2021,08,12,05,20,19.70
2021,08,12,05,21,19.70
2021,08,12,05,22,19.70
2021,08,12,05,23,19.70
2021,08,12,05,24,19.70
2021,08,12,05,25,19.70
2021,08,12,05,26,19.60
2021,08,12,05,27,19.60
2021,08,12,05,28,19.60
2021,08,12,05,29,19.60
2021,08,12,05,30,19.60
2021,08,12,05,31,19.70
2021,08,12,05,32,19.70
2021,08,12,05,33,19.70
2021,08,12,05,34,19.80
2021,08,12,05,35,19.80
2021,08,12,05,36,19.90
2021,08,12,05,37,19.90
2021,08,12,05,38,19.90
2021,08,12,05,39,20.00
2021,08,12,05,40,20.00
2021,08,12,05,41,19.90
2021,08,12,05,42,19.90
2021,08,12,05,43,19.80
2021,08,12,05,44,19.70
2021,08,12,05,45,19.60
2021,08,12,05,46,19.60
2021,08,12,05,47,19.50
2021,08,12,05,48,19.40
2021,08,12,05,49,19.40
2021,08,12,05,50,19.40
2021,08,12,05,51,19.40
2021,08,12,05,52,19.40
2021,08,12,05,53,19.40
2021,08,12,05,54,19.40
2021,08,12,05,55,19.40
2021,08,12,05,56,19.40
2021,08,12,05,57,19.50
2021,08,12,05,58,19.60
2021,08,12,05,59,19.70
2021,08,12,06,00,19.70
2021,08,12,06,01,19.70
2021,08,12,06,02,19.70
2021,08,12,06,03,19.70
2021,08,12,06,04,19.70
2021,08,12,06,05,19.70
2021,08,12,06,06,19.70
2021,08,12,06,07,19.70
2021,08,12,06,08,19.60
2021,08,12,06,09,19.60
2021,08,12,06,10,19.60
2021,08,12,06,11,19.60
2021,08,12,06,12,19.60
2021,08,12,06,13,19.60
2021,08,12,06,14,19.70
2021,08,12,06,15,19.70
2021,08,12,06,16,19.70
2021,08,12,06,17,19.70
2021,08,12,06,18,19.70
2021,08,12,06,19,19.80
2021,08,12,06,20,19.80
2021,08,12,06,21,19.90
2021,08,12,06,22,19.90
2021,08,12,06,23,20.00
2021,08,12,06,24,20.00
2021,08,12,06,25,20.00
2021,08,12,06,26,20.10
2021,08,12,06,27,20.10
2021,08,12,06,28,20.10
2021,08,12,06,29,20.10
2021,08,12,06,30,20.10
2021,08,12,06,31,20.10
2021,08,12,06,32,20.00
2021,08,12,06,33,20.00
2021,08,12,06,34,20.00
2021,08,12,06,35,19.90
2021,08,12,06,36,19.90
2021,08,12,06,37,19.90
2021,08,12,06,38,19.90
2021,08,12,06,39,19.80
2021,08,12,06,40,19.80
2021,08,12,06,41,19.80
2021,08,12,06,42,19.90
2021,08,12,06,43,19.90
2021,08,12,06,44,20.00
2021,08,12,06,45,20.10
2021,08,12,06,46,20.20
2021,08,12,06,47,20.20
2021,08,12,06,48,20.20
2021,08,12,06,49,20.30
2021,08,12,06,50,20.30
2021,08,12,06,51,20.40
2021,08,12,06,52,20.40
2021,08,12,06,53,20.40
2021,08,12,06,54,20.50
2021,08,12,06,55,20.50
2021,08,12,06,56,20.60
2021,08,12,06,57,20.60
2021,08,12,06,58,20.70
2021,08,12,06,59,20.70
2021,08,12,07,00,20.70
2021,08,12,07,01,20.80
2021,08,12,07,02,20.80
2021,08,12,07,03,20.90
2021,08,12,07,04,20.90
2021,08,12,07,05,21.00
2021,08,12,07,06,21.00
2021,08,12,07,07,21.10
2021,08,12,07,08,21.10
2021,08,12,07,09,21.10
2021,08,12,07,10,21.20
2021,08,12,07,11,21.20
2021,08,12,07,12,21.20
2021,08,12,07,13,21.20
2021,08,12,07,14,21.30
2021,08,12,07,15,21.30
2021,08,12,07,16,21.30
2021,08,12,07,17,21.30
2021,08,12,07,18,21.30
2021,08,12,07,19,21.30
2021,08,12,07,20,21.30
2021,08,12,07,21,21.30
2021,08,12,07,22,21.40
2021,08,12,07,23,21.40
2021,08,12,07,24,21.40
2021,08,12,07,25,21.40
2021,08,12,07,26,21.40
2021,08,12,07,27,21.40
2021,08,12,07,28,21.50
2021,08,12,07,29,21.50
2021,08,12,07,30,21.50
2021,08,12,07,31,21.50
2021,08,12,07,32,21.50
2021,08,12,07,33,21.50
2021,08,12,07,34,21.40
2021,08,12,07,35,21.40
2021,08,12,07,36,21.40
2021,08,12,07,37,21.40
2021,08,12,07,38,21.40
2021,08,12,07,39,21.40
2021,08,12,07,40,21.30
2021,08,12,07,41,21.20
2021,08,12,07,42,21.20
2021,08,12,07,43,21.20
2021,08,12,07,44,21.20
2021,08,12,07,45,21.10
2021,08,12,07,46,21.00
2021,08,12,07,47,20.90
2021,08,12,07,48,20.90
2021,08,12,07,49,20.90
2021,08,12,07,50,21.00
2021,08,12,07,51,21.10
2021,08,12,07,52,21.10
2021,08,12,07,53,21.20
2021,08,12,07,54,21.30
2021,08,12,07,55,21.30
2021,08,12,07,56,21.20
2021,08,12,07,57,21.10
2021,08,12,07,58,20.90
2021,08,12,07,59,20.90
2021,08,12,08,00,20.80
2021,08,12,08,01,20.60
2021,08,12,08,02,20.40
2021,08,12,08,03,20.30
2021,08,12,08,04,20.10
2021,08,12,08,05,20.00
2021,08,12,08,06,20.00
2021,08,12,08,07,20.00
2021,08,12,08,08,20.10
2021,08,12,08,09,20.30
2021,08,12,08,10,20.40
2021,08,12,08,11,20.60
2021,08,12,08,12,20.70
2021,08,12,08,13,20.70
2021,08,12,08,14,20.70
2021,08,12,08,15,20.70
2021,08,12,08,16,20.80
2021,08,12,08,17,20.80
2021,08,12,08,18,20.90
2021,08,12,08,19,20.90
2021,08,12,08,20,21.00
2021,08,12,08,21,21.00
2021,08,12,08,22,21.10
2021,08,12,08,23,21.20
2021,08,12,08,24,21.30
2021,08,12,08,25,21.30
2021,08,12,08,26,21.40
2021,08,12,08,27,21.40
2021,08,12,08,28,21.40
2021,08,12,08,29,21.50
2021,08,12,08,30,21.50
2021,08,12,08,31,21.60
2021,08,12,08,32,21.50
2021,08,12,08,33,21.40
2021,08,12,08,34,21.30
2021,08,12,08,35,21.20
2021,08,12,08,36,21.20
2021,08,12,08,37,21.30
2021,08,12,08,38,21.20
2021,08,12,08,39,21.20
2021,08,12,08,40,21.10
2021,08,12,08,41,21.10
2021,08,12,08,42,21.00
2021,08,12,08,43,21.00
2021,08,12,08,44,20.90
2021,08,12,08,45,20.80
2021,08,12,08,46,20.70
2021,08,12,08,47,20.60
2021,08,12,08,48,20.50
2021,08,12,08,49,20.50
2021,08,12,08,50,20.50
2021,08,12,08,51,20.50
2021,08,12,08,52,20.50
2021,08,12,08,53,20.50
2021,08,12,08,54,20.40
2021,08,12,08,55,20.30
2021,08,12,08,56,20.20
2021,08,12,08,57,20.20
2021,08,12,08,58,20.20
2021,08,12,08,59,20.20
2021,08,12,09,00,20.20
2021,08,12,09,01,20.20
2021,08,12,09,02,20.30
2021,08,12,09,03,20.30
2021,08,12,09,04,20.30
2021,08,12,09,05,20.20
2021,08,12,09,06,20.10
2021,08,12,09,07,20.10
2021,08,12,09,08,20.10
2021,08,12,09,09,20.10
2021,08,12,09,10,20.20
2021,08,12,09,11,20.20
2021,08,12,09,12,20.30
2021,08,12,09,13,20.30
2021,08,12,09,14,20.40
2021,08,12,09,15,20.50
2021,08,12,09,16,20.50
2021,08,12,09,17,20.60
2021,08,12,09,18,20.70
2021,08,12,09,19,20.70
2021,08,12,09,20,20.80
2021,08,12,09,21,20.80
2021,08,12,09,22,20.70
2021,08,12,09,23,20.70
2021,08,12,09,24,20.80
2021,08,12,09,25,20.80
2021,08,12,09,26,20.70
2021,08,12,09,27,20.70
2021,08,12,09,28,20.60
2021,08,12,09,29,20.60
2021,08,12,09,30,20.60
2021,08,12,09,31,20.50
2021,08,12,09,32,20.60
2021,08,12,09,33,20.60
2021,08,12,09,34,20.70
2021,08,12,09,35,20.80
2021,08,12,09,36,20.90
2021,08,12,09,37,20.90
2021,08,12,09,38,20.90
2021,08,12,09,39,20.90
2021,08,12,09,40,20.90
2021,08,12,09,41,20.90
2021,08,12,09,42,21.00
2021,08,12,09,43,21.10
2021,08,12,09,44,21.00
2021,08,12,09,45,21.00
2021,08,12,09,46,21.00
2021,08,12,09,47,20.90
2021,08,12,09,48,20.90
2021,08,12,09,49,21.00
2021,08,12,09,50,21.00
2021,08,12,09,51,21.00
2021,08,12,09,52,20.90
2021,08,12,09,53,20.80
2021,08,12,09,54,20.70
2021,08,12,09,55,20.70
2021,08,12,09,56,20.70
2021,08,12,09,57,20.80
2021,08,12,09,58,20.90
2021,08,12,09,59,21.00
2021,08,12,10,00,21.10
2021,08,12,10,01,21.10
2021,08,12,10,02,21.20
2021,08,12,10,03,21.20
2021,08,12,10,04,21.30
2021,08,12,10,05,21.40
2021,08,12,10,06,21.40
2021,08,12,10,07,21.50
2021,08,12,10,08,21.60
2021,08,12,10,09,21.60
2021,08,12,10,10,21.70
2021,08,12,10,11,21.80
2021,08,12,10,12,21.80
2021,08,12,10,13,21.80
2021,08,12,10,14,21.80
2021,08,12,10,15,21.70
2021,08,12,10,16,21.70
2021,08,12,10,17,21.70
2021,08,12,10,18,21.70
2021,08,12,10,19,21.70
2021,08,12,10,20,21.70
2021,08,12,10,21,21.80
2021,08,12,10,22,21.80
2021,08,12,10,23,21.80
2021,08,12,10,24,21.80
2021,08,12,10,25,21.90
2021,08,12,10,26,21.90
2021,08,12,10,27,22.00
2021,08,12,10,28,22.10
2021,08,12,10,29,22.10
2021,08,12,10,30,22.20
2021,08,12,10,31,22.30
2021,08,12,10,32,22.40
2021,08,12,10,33,22.50
2021,08,12,10,34,22.60
2021,08,12,10,35,22.70
2021,08,12,10,36,22.90
2021,08,12,10,37,23.00
2021,08,12,10,38,23.10
2021,08,12,10,39,23.20
2021,08,12,10,40,23.30
2021,08,12,10,41,23.40
2021,08,12,10,42,23.50
2021,08,12,10,43,23.60
2021,08,12,10,44,23.60
2021,08,12,10,45,23.60
2021,08,12,10,46,23.60
2021,08,12,10,47,23.70
2021,08,12,10,48,23.70
2021,08,12,10,49,23.70
2021,08,12,10,50,23.60
2021,08,12,10,51,23.60
2021,08,12,10,52,23.60
2021,08,12,10,53,23.60
2021,08,12,10,54,23.60
2021,08,12,10,55,23.50
2021,08,12,10,56,23.50
2021,08,12,10,57,23.40
2021,08,12,10,58,23.30
2021,08,12,10,59,23.30
2021,08,12,11,00,23.30
2021,08,12,11,01,23.30
2021,08,12,11,02,23.30
2021,08,12,11,03,23.30
2021,08,12,11,04,23.10
2021,08,12,11,05,23.00
2021,08,12,11,06,22.90
2021,08,12,11,07,22.70
2021,08,12,11,08,22.60
2021,08,12,11,09,22.50
2021,08,12,11,10,22.40
2021,08,12,11,11,22.40
2021,08,12,11,12,22.50
2021,08,12,11,13,22.30
2021,08,12,11,14,22.20
2021,08,12,11,15,22.10
2021,08,12,11,16,22.00
2021,08,12,11,17,21.90
2021,08,12,11,18,21.80
2021,08,12,11,19,21.80
2021,08,12,11,20,21.80
2021,08,12,11,21,21.80
2021,08,12,11,22,21.80
2021,08,12,11,23,21.90
2021,08,12,11,24,21.90
2021,08,12,11,25,21.90
2021,08,12,11,26,21.90
2021,08,12,11,27,21.90
2021,08,12,11,28,21.80
2021,08,12,11,29,21.90
2021,08,12,11,30,21.90
2021,08,12,11,31,22.00
2021,08,12,11,32,22.10
2021,08,12,11,33,22.20
2021,08,12,11,34,22.30
2021,08,12,11,35,22.40
2021,08,12,11,36,22.50
2021,08,12,11,37,22.60
2021,08,12,11,38,22.70
2021,08,12,11,39,22.80
2021,08,12,11,40,22.90
2021,08,12,11,41,23.00
2021,08,12,11,42,23.00
2021,08,12,11,43,23.10
2021,08,12,11,44,23.20
2021,08,12,11,45,23.20
2021,08,12,11,46,23.20
2021,08,12,11,47,23.20
2021,08,12,11,48,23.20
2021,08,12,11,49,23.30
2021,08,12,11,50,23.30
2021,08,12,11,51,23.30
2021,08,12,11,52,23.40
2021,08,12,11,53,23.40
2021,08,12,11,54,23.40
2021,08,12,11,55,23.40
2021,08,12,11,56,23.40
2021,08,12,11,57,23.40
2021,08,12,11,58,23.40
2021,08,12,11,59,23.50
2021,08,12,12,00,23.60
2021,08,12,12,01,23.60
2021,08,12,12,02,23.70
2021,08,12,12,03,23.70
2021,08,12,12,04,23.70
2021,08,12,12,05,23.70
2021,08,12,12,06,23.70
2021,08,12,12,07,23.80
2021,08,12,12,08,23.90
2021,08,12,12,09,24.00
2021,08,12,12,10,24.00
2021,08,12,12,11,23.90
2021,08,12,12,12,23.70
2021,08,12,12,13,23.60
2021,08,12,12,14,23.50
2021,08,12,12,15,23.40
2021,08,12,12,16,23.20
2021,08,12,12,17,23.10
2021,08,12,12,18,23.00
2021,08,12,12,19,23.00
2021,08,12,12,20,22.90
2021,08,12,12,21,22.90
2021,08,12,12,22,22.90
2021,08,12,12,23,22.90
2021,08,12,12,24,23.00
2021,08,12,12,25,23.00
2021,08,12,12,26,23.00
2021,08,12,12,27,23.00
2021,08,12,12,28,23.00
2021,08,12,12,29,23.10
2021,08,12,12,30,23.10
2021,08,12,12,31,23.20
2021,08,12,12,32,23.30
2021,08,12,12,33,23.40
2021,08,12,12,34,23.50
2021,08,12,12,35,23.60
2021,08,12,12,36,23.60
2021,08,12,12,37,23.70
2021,08,12,12,38,23.70
2021,08,12,12,39,23.70
2021,08,12,12,40,23.60
2021,08,12,12,41,23.60
2021,08,12,12,42,23.60
2021,08,12,12,43,23.70
2021,08,12,12,44,23.70
2021,08,12,12,45,23.70
2021,08,12,12,46,23.60
2021,08,12,12,47,23.70
2021,08,12,12,48,23.70
2021,08,12,12,49,23.70
2021,08,12,12,50,23.70
2021,08,12,12,51,23.80
2021,08,12,12,52,23.80
2021,08,12,12,53,23.90
2021,08,12,12,54,24.10
2021,08,12,12,55,24.20
2021,08,12,12,56,24.30
2021,08,12,12,57,24.40
2021,08,12,12,58,24.50
2021,08,12,12,59,24.60
2021,08,12,13,00,24.70
2021,08,12,13,01,24.80
2021,08,12,13,02,25.00
2021,08,12,13,03,25.10
2021,08,12,13,04,25.20
2021,08,12,13,05,25.20
2021,08,12,13,06,25.30
2021,08,12,13,07,25.30
2021,08,12,13,08,25.30
2021,08,12,13,09,25.30
2021,08,12,13,10,25.30
2021,08,12,13,11,25.20
2021,08,12,13,12,25.10
2021,08,12,13,13,25.10
2021,08,12,13,14,25.20
2021,08,12,13,15,25.20
2021,08,12,13,16,25.30
2021,08,12,13,17,25.40
2021,08,12,13,18,25.40
2021,08,12,13,19,25.50
2021,08,12,13,20,25.40
2021,08,12,13,21,25.30
2021,08,12,13,22,25.30
2021,08,12,13,23,25.30
2021,08,12,13,24,25.30
2021,08,12,13,25,25.30
2021,08,12,13,26,25.40
2021,08,12,13,27,25.40
2021,08,12,13,28,25.40
2021,08,12,13,29,25.40
2021,08,12,13,30,25.40
2021,08,12,13,31,25.40
2021,08,12,13,32,25.40
2021,08,12,13,33,25.40
2021,08,12,13,34,25.40
2021,08,12,13,35,25.30
2021,08,12,13,36,25.30
2021,08,12,13,37,25.30
2021,08,12,13,38,25.30
2021,08,12,13,39,25.40
2021,08,12,13,40,25.30
2021,08,12,13,41,25.30
2021,08,12,13,42,25.30
2021,08,12,13,43,25.30
2021,08,12,13,44,25.20
2021,08,12,13,45,25.30
2021,08,12,13,46,25.20
2021,08,12,13,47,25.10
2021,08,12,13,48,25.10
2021,08,12,13,49,25.00
2021,08,12,13,50,24.90
2021,08,12,13,51,24.70
2021,08,12,13,52,24.50
2021,08,12,13,53,24.40
2021,08,12,13,54,24.60
2021,08,12,13,55,24.80
2021,08,12,13,56,24.90
2021,08,12,13,57,25.20
2021,08,12,13,58,25.50
2021,08,12,13,59,25.40
2021,08,12,14,00,25.30
2021,08,12,14,01,25.20
2021,08,12,14,02,25.50
2021,08,12,14,03,25.80
2021,08,12,14,04,25.80
2021,08,12,14,05,25.50
2021,08,12,14,06,25.20
2021,08,12,14,07,24.90
2021,08,12,14,08,24.80
2021,08,12,14,09,24.60
2021,08,12,14,10,24.50
2021,08,12,14,11,24.40
2021,08,12,14,12,24.40
2021,08,12,14,13,24.30
2021,08,12,14,14,24.30
2021,08,12,14,15,24.30
2021,08,12,14,16,24.40
2021,08,12,14,17,24.40
2021,08,12,14,18,24.50
2021,08,12,14,19,24.60
2021,08,12,14,20,24.70
2021,08,12,14,21,24.80
2021,08,12,14,22,24.90
2021,08,12,14,23,25.00
2021,08,12,14,24,25.10
2021,08,12,14,25,25.20
2021,08,12,14,26,25.30
2021,08,12,14,27,25.30
2021,08,12,14,28,25.40
2021,08,12,14,29,25.50
2021,08,12,14,30,25.50
2021,08,12,14,31,25.70
2021,08,12,14,32,25.80
2021,08,12,14,33,25.90
2021,08,12,14,34,26.10
2021,08,12,14,35,26.20
2021,08,12,14,36,26.40
2021,08,12,14,37,26.60
2021,08,12,14,38,26.70
2021,08,12,14,39,26.80
2021,08,12,14,40,27.00
2021,08,12,14,41,27.20
2021,08,12,14,42,27.50
2021,08,12,14,43,27.80
2021,08,12,14,44,28.10
2021,08,12,14,45,28.30
2021,08,12,14,46,28.50
2021,08,12,14,47,28.80
2021,08,12,14,48,28.90
2021,08,12,14,49,29.10
2021,08,12,14,50,29.30
2021,08,12,14,51,29.40
2021,08,12,14,52,29.50
2021,08,12,14,53,29.60
2021,08,12,14,54,29.70
2021,08,12,14,55,29.80
2021,08,12,14,56,29.90
2021,08,12,14,57,29.90
2021,08,12,14,58,30.00
2021,08,12,14,59,30.00
2021,08,12,15,00,30.10
2021,08,12,15,01,30.20
2021,08,12,15,02,30.20
2021,08,12,15,03,30.30
2021,08,12,15,04,30.40
2021,08,12,15,05,30.50
2021,08,12,15,06,30.60
2021,08,12,15,07,30.70
2021,08,12,15,08,30.80
2021,08,12,15,09,30.80
2021,08,12,15,10,30.80
2021,08,12,15,11,30.80
2021,08,12,15,12,30.80
2021,08,12,15,13,30.80
2021,08,12,15,14,30.80
2021,08,12,15,15,30.80
2021,08,12,15,16,30.80
2021,08,12,15,17,30.80
2021,08,12,15,18,30.70
2021,08,12,15,19,30.60
2021,08,12,15,20,30.50
2021,08,12,15,21,30.40
2021,08,12,15,22,30.30
2021,08,12,15,23,30.20
2021,08,12,15,24,30.00
2021,08,12,15,25,30.00
2021,08,12,15,26,29.90
2021,08,12,15,27,30.00
2021,08,12,15,28,30.00
2021,08,12,15,29,30.10
2021,08,12,15,30,30.10
2021,08,12,15,31,30.20
2021,08,12,15,32,30.20
2021,08,12,15,33,30.30
2021,08,12,15,34,30.40
2021,08,12,15,35,30.40
2021,08,12,15,36,30.30
2021,08,12,15,37,29.90
2021,08,12,15,38,29.40
2021,08,12,15,39,28.90
2021,08,12,15,40,28.50
2021,08,12,15,41,28.10
2021,08,12,15,42,27.70
2021,08,12,15,43,27.40
2021,08,12,15,44,27.00
2021,08,12,15,45,26.70
2021,08,12,15,46,26.50
2021,08,12,15,47,26.20
2021,08,12,15,48,26.00
2021,08,12,15,49,25.90
2021,08,12,15,50,25.80
2021,08,12,15,51,25.80
2021,08,12,15,52,25.70
2021,08,12,15,53,25.70
2021,08,12,15,54,25.70
2021,08,12,15,55,25.70
2021,08,12,15,56,25.80
2021,08,12,15,57,25.80
2021,08,12,15,58,25.90
2021,08,12,15,59,26.00
2021,08,12,16,00,26.20
2021,08,12,16,01,26.30
2021,08,12,16,02,26.40
2021,08,12,16,03,26.50
2021,08,12,16,04,26.70
2021,08,12,16,05,26.80
2021,08,12,16,06,26.90
2021,08,12,16,07,27.00
2021,08,12,16,08,27.10
2021,08,12,16,09,27.20
2021,08,12,16,10,27.30
2021,08,12,16,11,27.30
2021,08,12,16,12,27.40
2021,08,12,16,13,27.50
2021,08,12,16,14,27.50
2021,08,12,16,15,27.60
2021,08,12,16,16,27.60
2021,08,12,16,17,27.70
2021,08,12,16,18,27.70
2021,08,12,16,19,27.70
2021,08,12,16,20,27.70
2021,08,12,16,21,27.70
2021,08,12,16,22,27.70
2021,08,12,16,23,27.70
2021,08,12,16,24,27.70
2021,08,12,16,25,27.70
2021,08,12,16,26,27.60
2021,08,12,16,27,27.60
2021,08,12,16,28,27.60
2021,08,12,16,29,27.60
2021,08,12,16,30,27.40
2021,08,12,16,31,27.30
2021,08,12,16,32,27.10
2021,08,12,16,33,27.00
2021,08,12,16,34,26.80
2021,08,12,16,35,26.70
2021,08,12,16,36,26.50
2021,08,12,16,37,26.40
2021,08,12,16,38,26.40
2021,08,12,16,39,26.40
2021,08,12,16,40,26.30
2021,08,12,16,41,26.40
2021,08,12,16,42,26.40
2021,08,12,16,43,26.40
2021,08,12,16,44,26.40
2021,08,12,16,45,26.40
2021,08,12,16,46,26.50
2021,08,12,16,47,26.50
2021,08,12,16,48,26.60
2021,08,12,16,49,26.60
2021,08,12,16,50,26.60
2021,08,12,16,51,26.70
2021,08,12,16,52,26.70
2021,08,12,16,53,26.70
2021,08,12,16,54,26.70
2021,08,12,16,55,26.70
2021,08,12,16,56,26.80
2021,08,12,16,57,26.80
2021,08,12,16,58,26.80
2021,08,12,16,59,26.70
2021,08,12,17,00,26.70
2021,08,12,17,01,26.70
2021,08,12,17,02,26.70
2021,08,12,17,03,26.70
2021,08,12,17,04,26.70
2021,08,12,17,05,26.70
2021,08,12,17,06,26.70
2021,08,12,17,07,26.70
2021,08,12,17,08,26.70
2021,08,12,17,09,26.60
2021,08,12,17,10,26.60
2021,08,12,17,11,26.70
2021,08,12,17,12,26.70
2021,08,12,17,13,26.70
2021,08,12,17,14,26.70
2021,08,12,17,15,26.70
2021,08,12,17,16,26.60
2021,08,12,17,17,26.50
2021,08,12,17,18,26.40
2021,08,12,17,19,26.30